Location: Newark
(45.6167°N, 9.2167°E)
Time: 17:18:43
(UTC+00:00)

N. Korean satellite - Visible Passes

Search period start: 20 October 2019 00:00
Search period end: 30 October 2019 00:00
Orbit: 455 x 508 km, 97.2° (Epoch: 20 October)

Date Brightness Start Highest point End Pass type
(mag) Time Alt. Az. Time Alt. Az. Time Alt. Az.
20 Oct 8.8 04:49:02 10° NNE 04:52:17 31° E 04:55:34 10° SSE visible
20 Oct 8.7 17:00:01 10° SSW 17:03:07 32° W 17:06:16 10° NNW visible
21 Oct 10.0 04:24:28 10° NE 04:26:50 16° E 04:29:12 10° SE visible
23 Oct 7.6 05:06:15 10° NNE 05:09:49 52° E 05:13:25 10° S visible
23 Oct 9.6 17:18:05 10° SW 17:20:41 20° W 17:23:18 10° NW visible
24 Oct 9.2 04:41:19 10° NE 04:44:26 26° E 04:47:32 10° SSE visible
24 Oct 8.1 16:51:58 10° S 16:55:13 40° W 16:58:32 10° NNW visible
25 Oct 10.2 04:17:01 10° ENE 04:18:56 14° E 04:20:51 10° ESE visible
26 Oct 10.2 17:36:41 10° WSW 17:38:15 13° W 17:39:50 10° WNW visible
27 Oct 8.1 04:58:26 10° NNE 05:01:57 41° E 05:05:28 10° S visible
27 Oct 9.2 17:09:51 10° SSW 17:12:43 24° W 17:15:39 10° NW visible
28 Oct 9.5 04:33:37 10° NE 04:36:30 21° E 04:39:24 10° SE visible
28 Oct 7.6 16:43:55 10° S 16:47:17 51° W 16:50:44 10° NNW visible
29 Oct 10.4 04:09:46 10° ENE 04:10:58 11° E 04:12:11 10° ESE visible
